{"data":{"norad_id":41893,"intl_designator":"2016-079A","name":"ECHOSTAR 19","alt_names":[],"object_type":"PAYLOAD","status":"ACTIVE","operator":null,"country":"US","launch_date":"2016-12-18","launch_site_code":"AFETR","launch_vehicle":null,"mission":null,"orbit_class":"UNKNOWN","rcs_meters":7.191,"size_class":null,"mass_kg":null,"dimensions":null,"purposes":["comms"],"wikipedia_slug":null,"has_3d_model":false,"image_url":null,"decayed_at":null,"tle_current":{"epoch":"2026-05-25T03:16:33.003840Z","epoch_age_seconds":70103,"freshness":"FRESH","line1":"1 41893U 16079A   26145.13649310 -.00000141  00000+0  00000+0 0  9998","line2":"2 41893   0.0154 339.6723 0001267  89.4673 125.6253  1.00271985 34478","mean_motion":1.00271985,"eccentricity":0.0001267,"inclination_deg":0.0154,"raan_deg":339.6723,"arg_perigee_deg":89.4673,"mean_anomaly_deg":125.6253,"bstar":0,"rev_number":3447,"period_min":1436.0940396263,"perigee_km":35781.196629588,"apogee_km":35791.881158459,"semimajor_km":42164.675894024,"source":"CELESTRAK","updated_at":"2026-05-25T13:38:14.010836Z"}}}